Weather History for Valdosta Regional, GA

Change the Weather History Date:

Thursday, February 28, 2013

  Actual Average Record
Temperature  
Mean Temperature 56 °F 57 °F  
Max Temperature 68 °F 70 °F 68 °F (2014)
Min Temperature 43 °F 44 °F 32 °F (2014)
Degree Days  
Heating Degree Days 9 9  
Month to date heating degree days 240 311  
Since 1 July heating degree days 869 1380  
Growing Degree Days 6 (Base 50)    
Moisture  
Dew Point 36 °F    
Average Humidity 57    
Maximum Humidity 89    
Minimum Humidity 24    
Precipitation  
Precipitation 0.00 in - 0.00 in (2014)
Month to date precipitation 5.39  
Year to date precipitation 6.15  
Sea Level Pressure  
Sea Level Pressure 29.97 in    
Wind  
Wind Speed 3 mph (WNW)    
Max Wind Speed 13 mph    
Max Gust Speed 22 mph    
Visibility 9 miles    
Events      
T = Trace of Precipitation, MM = Missing Value Source: NWS Daily Summary

Daily Weather History Graph

Daily Weather History Graph

Search for Another Location

Airport:

Trip Planner

Search our weather history database for the weather conditions in past years. The results will help you decide how hot, cold, wet, or windy it might be!

Date:

Astronomy

Feb. 28, 2013 Rise Set
Actual Time 7:00 AM EST 6:31 PM EST
Civil Twilight 6:36 AM EST 6:55 PM EST
Nautical Twilight 6:08 AM EST 7:23 PM EST
Astronomical Twilight 5:40 AM EST 7:51 PM EST
Moon 9:38 PM EST (2/28) 8:25 AM EST (2/28)
Length of Visible Light 12h 19m
Length of Day
11h 30m
Waning Gibbous, 91% of the Moon is Illuminated
Feb 28
Waning Gibbous
Mar 4
Last Quarter
Mar 11
New
Mar 19
First Quarter
Mar 27
Full

Hourly Weather History & Observations

Time (EST) Temp. Dew Point Humidity Pressure Visibility Wind Dir Wind Speed Gust Speed Precip Events Conditions
12:53 AM 48.0 °F 43.0 °F 83% 29.97 in 10.0 mi Calm Calm - N/A   Clear
1:53 AM 46.9 °F 42.1 °F 83% 29.97 in 10.0 mi Calm Calm - N/A   Clear
2:53 AM 46.0 °F 41.0 °F 83% 29.96 in 8.0 mi Calm Calm - N/A   Clear
3:53 AM 45.0 °F 41.0 °F 86% 29.96 in 9.0 mi Calm Calm - N/A   Clear
4:53 AM 45.0 °F 41.0 °F 86% 29.96 in 6.0 mi Calm Calm - N/A   Clear
5:53 AM 44.1 °F 39.9 °F 85% 29.97 in 4.0 mi Calm Calm - N/A   Clear
6:53 AM 44.1 °F 39.9 °F 85% 29.98 in 5.0 mi Calm Calm - N/A   Clear
7:53 AM 48.9 °F 44.1 °F 83% 30.01 in 10.0 mi Calm Calm - N/A   Clear
9:53 AM 57.9 °F 39.0 °F 49% 30.03 in 10.0 mi Variable 4.6 mph - N/A   Clear
10:53 AM 60.1 °F 37.0 °F 42% 30.02 in 10.0 mi Variable 5.8 mph - N/A   Clear
11:53 AM 62.1 °F 36.0 °F 38% 30.01 in 10.0 mi WNW 8.1 mph - N/A   Clear
12:53 PM 64.9 °F 36.0 °F 34% 29.98 in 10.0 mi Variable 6.9 mph - N/A   Clear
1:53 PM 66.9 °F 36.0 °F 32% 29.95 in 10.0 mi Variable 5.8 mph - N/A   Clear
2:53 PM 68.0 °F 30.0 °F 24% 29.93 in 10.0 mi Variable 6.9 mph - N/A   Partly Cloudy
3:53 PM 66.9 °F 28.9 °F 24% 29.94 in 10.0 mi Variable 4.6 mph - N/A   Clear
4:53 PM 64.0 °F 27.0 °F 25% 29.94 in 10.0 mi Variable 5.8 mph - N/A   Clear
5:53 PM 60.1 °F 30.0 °F 32% 29.95 in 10.0 mi Variable 4.6 mph - N/A   Clear
6:53 PM 55.9 °F 34.0 °F 44% 29.97 in 10.0 mi Calm Calm - N/A   Clear
7:53 PM 54.0 °F 36.0 °F 51% 29.97 in 10.0 mi Calm Calm - N/A   Clear
8:53 PM 55.9 °F 33.1 °F 42% 29.97 in 10.0 mi Calm Calm - N/A   Clear
9:53 PM 54.0 °F 35.1 °F 49% 29.98 in 10.0 mi Variable 4.6 mph - N/A   Clear
10:53 PM 54.0 °F 33.1 °F 45% 29.99 in 10.0 mi Variable 3.5 mph - N/A   Clear
11:53 PM 53.1 °F 33.1 °F 47% 29.99 in 10.0 mi Calm Calm - N/A   Clear